STARLINK-36155

Last updated on Fri Dec 19 2025 00:02:08 GMT+0000 (Coordinated Universal Time)

1 66938U 25286P 25352.58336806 -.01339519 00000+0 -71241-2 0 9990 2 66938 53.1557 21.0199 0001088 65.1519 66.3186 15.82648145 2934
UTC large
Height (km)
Speed (km/s)
/
Latitude / Longitude
Inclination (degrees)
Orbital Period (minutes)
Azimuth
Elevation
Range (km)
Doppler Factor

Next 0 passes for location: London (51.5072 / 0.1276)

Sorry there are no passes over London.